Location: Alafon
(8.4500°N, 4.2333°E)
Time: 01:28:09
(UTC+00:00)

Timation 1 Rocket - Pass Details

Date: 05 July 2020
Orbit: 900 x 907 km, 70.0° (Epoch: 06 August)

Event Time Altitude Azimuth Distance (km) Brightness Sun altitude
Rises 19:58:47 0° 345° (NNW) 3,508 8.1 -25.9°
Reaches altitude 10° 20:01:16 10° 346° (NNW) 2,569 7.2 -26.4°
Maximum altitude 20:07:13 82° 73° (ENE) 912 4.2 -27.7°
Enters shadow 20:07:23 81° 102° (ESE) 914 4.1 -27.7°
